COSMOS 489

导读

COSMOS 489是苏联(CIS前身)于1972年5月6日08:00发射的一颗卫星,隶属于苏联“宇宙”(COSMOS)卫星系列。该系列卫星涵盖军事侦察、空间科学探测等多种任务,这颗卫星在服役期间完成了既定的空间观测或科研任务。作为冷战时期苏联航天活动的产物,它见证了早期航天技术的发展,目前已成为废弃太空天体,后续可能受轨道衰减影响再入地球大气层。

基本信息
目录编号:
6019
目录名称:
COSMOS 489
国际标识:
1972-035A
轨道中心:
EARTH
卫星名称:
COSMOS 489
卫星全名:
--
卫星状态:
在轨 (已飞行19854 天)
发射日期:
1972-05-06 UTC
国别 :
俄罗斯(独联体) (CIS)
星等 :
--
该卫星已列入 空间交会检测服务 Space Conjunction Data Service (SCDS) ,当前飞行风险评估等级: 无高风险
轨道信息
数据来源 国际轨道数据 AOE轨道数据
星历时间 2026-09-14T12:38:23+0800
3小时前
查看轨道信息
2026-09-13T00:00:00+0800
1天前
查看轨道信息
半长轴 7355.685km 7355.68km
偏心率 0.0023281 0.0023269
轨道倾角 74.021° 74.023°
近地点辐角 97.680° 100.158°
升交点赤经 178.188° 180.727°
平近点角 54.210° 51.291°
近地点 960.423km 960.427km
远地点 994.673km 994.659km
周期 104.639分钟 104.639分钟
每日圈数 13.761575 13.761588
详细信息
使用方式:
暂无
2D轨道图
3D轨道图
轨道高度分析图
轨道倾角分析图
轨道综合分析图
查看轨道综合分析图
交会数据列表
事件ID 空间交会对象 最接近时刻(TCA) 交会距离 交会风险概率(CRP) 交会风险指数(CRI) 操作
CDM_260915-204300-601901-550524
2026-09-15T
20:43:57+0000
2.460 km
极远距离
1.773246E-6 低风险 0.4
与全量物体交会距离演化趋势 订阅飞行安全评估服务
与全量物体交会风险概率演化趋势 订阅飞行安全评估服务